When you browse on this site, cookies collect data to enhance your experience and personalize the content and advertising you see.
Visit our Privacy Policy to learn more. By continuing to use the site, you agree to this use of cookies and data.
  • In Sweden
  • List of Countries
  • For 7 days
  • Water Temperature
  • Weather Map
  • Weather Widgets
  • user-avatar
    Login

    Hourly Weather South Lake Tahoe

    Today, 30 May, Saturday

    Time Temperature Precipitation Wind Pressure Humidity
    00:00 +13°C° 0 mm 1 mps 601 mmHg 79%
    01:00 +12°C° 0 mm 2 mps 600 mmHg 82%
    02:00 +12°C° 0.1 mm 2 mps 600 mmHg 85%
    03:00 +12°C° 0.1 mm 2 mps 600 mmHg 88%
    04:00 +10°C° 0.1 mm 3 mps 600 mmHg 91%
    05:00 +10°C° 0.7 mm 3 mps 600 mmHg 89%
    06:00 +9°C° 0.7 mm 3 mps 600 mmHg 87%
    07:00 +8°C° 0.7 mm 4 mps 600 mmHg 86%
    08:00 +8°C° 0.4 mm 4 mps 600 mmHg 79%
    09:00 +8°C° 0.4 mm 5 mps 600 mmHg 72%
    10:00 +9°C° 0.4 mm 6 mps 601 mmHg 66%
    11:00 +9°C° 0.3 mm 6 mps 601 mmHg 63%
    12:00 +10°C° 0.3 mm 7 mps 602 mmHg 60%
    13:00 +10°C° 0.3 mm 7 mps 602 mmHg 56%
    14:00 +10°C° 0.1 mm 7 mps 602 mmHg 56%
    15:00 +10°C° 0.1 mm 7 mps 601 mmHg 56%
    16:00 +10°C° 0.1 mm 7 mps 601 mmHg 55%
    17:00 +9°C° 0.1 mm 6 mps 601 mmHg 63%
    18:00 +8°C° 0.1 mm 5 mps 601 mmHg 70%
    19:00 +6°C° 0.1 mm 4 mps 601 mmHg 78%
    20:00 +7°C° 0 mm 3 mps 601 mmHg 81%
    21:00 +6°C° 0 mm 2 mps 601 mmHg 83%
    22:00 +7°C° 0 mm 1 mps 601 mmHg 86%
    23:00 +6°C° 0 mm 1 mps 601 mmHg 87%

    Tomorrow, 31 May, Sunday

    Time Temperature Precipitation Wind Pressure Humidity
    00:00 +6°C° 0 mm 1 mps 601 mmHg 89%
    01:00 +5°C° 0 mm 1 mps 600 mmHg 90%
    02:00 +5°C° 0 mm 1 mps 600 mmHg 86%
    03:00 +5°C° 0 mm 1 mps 600 mmHg 81%
    04:00 +3°C° 0 mm 0 mps 600 mmHg 77%
    05:00 +5°C° 0 mm 0 mps 601 mmHg 70%
    06:00 +7°C° 0 mm 0 mps 602 mmHg 63%
    07:00 +9°C° 0 mm 0 mps 602 mmHg 55%
    08:00 +12°C° 0 mm 1 mps 603 mmHg 49%
    09:00 +14°C° 0 mm 1 mps 604 mmHg 42%
    10:00 +16°C° 0 mm 1 mps 605 mmHg 35%
    11:00 +18°C° 0 mm 1 mps 605 mmHg 35%
    12:00 +18°C° 0 mm 2 mps 605 mmHg 35%
    13:00 +18°C° 0 mm 2 mps 605 mmHg 35%
    14:00 +18°C° 0 mm 2 mps 604 mmHg 39%
    15:00 +17°C° 0 mm 2 mps 604 mmHg 43%
    16:00 +16°C° 0 mm 3 mps 603 mmHg 47%
    17:00 +15°C° 0.1 mm 2 mps 603 mmHg 55%
    18:00 +14°C° 0.1 mm 1 mps 602 mmHg 63%
    19:00 +12°C° 0.1 mm 1 mps 602 mmHg 70%
    20:00 +11°C° 0 mm 1 mps 602 mmHg 74%
    21:00 +10°C° 0 mm 1 mps 601 mmHg 77%
    22:00 +9°C° 0 mm 1 mps 601 mmHg 80%
    23:00 +9°C° 0 mm 1 mps 601 mmHg 79%

    Day after tomorrow, 1 June, Monday

    Time Temperature Precipitation Wind Pressure Humidity
    00:00 +9°C° 0 mm 1 mps 601 mmHg 77%
    01:00 +10°C° 0 mm 1 mps 601 mmHg 76%
    02:00 +9°C° 0.1 mm 1 mps 601 mmHg 77%
    03:00 +9°C° 0.1 mm 1 mps 601 mmHg 78%
    04:00 +9°C° 0.1 mm 1 mps 601 mmHg 80%
    05:00 +10°C° 0 mm 1 mps 601 mmHg 76%
    06:00 +11°C° 0 mm 1 mps 602 mmHg 72%
    07:00 +11°C° 0 mm 1 mps 603 mmHg 68%
    08:00 +12°C° 0 mm 1 mps 603 mmHg 65%
    09:00 +13°C° 0 mm 1 mps 604 mmHg 61%
    10:00 +14°C° 0 mm 2 mps 604 mmHg 57%
    11:00 +14°C° 0.3 mm 2 mps 604 mmHg 61%
    12:00 +14°C° 0.3 mm 2 mps 604 mmHg 64%
    13:00 +14°C° 0.3 mm 1 mps 603 mmHg 67%
    14:00 +14°C° 0.8 mm 2 mps 603 mmHg 67%
    15:00 +14°C° 0.8 mm 2 mps 603 mmHg 66%
    16:00 +15°C° 0.8 mm 2 mps 603 mmHg 65%
    17:00 +14°C° 0.1 mm 2 mps 603 mmHg 69%
    18:00 +13°C° 0.1 mm 1 mps 603 mmHg 74%
    19:00 +12°C° 0.1 mm 1 mps 603 mmHg 78%
    20:00 +11°C° 0.1 mm 1 mps 603 mmHg 80%
    21:00 +11°C° 0.1 mm 1 mps 603 mmHg 82%
    22:00 +10°C° 0.1 mm 1 mps 603 mmHg 84%
    23:00 +10°C° 0 mm 1 mps 603 mmHg 85%

    2 June, Tuesday

    Time Temperature Precipitation Wind Pressure Humidity
    00:00 +10°C° 0 mm 1 mps 602 mmHg 86%
    01:00 +9°C° 0 mm 1 mps 602 mmHg 87%
    02:00 +9°C° 0.1 mm 1 mps 602 mmHg 87%
    03:00 +9°C° 0.1 mm 1 mps 602 mmHg 88%
    04:00 +9°C° 0.1 mm 1 mps 602 mmHg 89%
    05:00 +9°C° 0 mm 2 mps 602 mmHg 86%
    06:00 +10°C° 0 mm 2 mps 603 mmHg 82%
    07:00 +12°C° 0 mm 2 mps 604 mmHg 79%
    08:00 +14°C° 0 mm 2 mps 604 mmHg 71%
    09:00 +14°C° 0 mm 3 mps 605 mmHg 63%
    10:00 +17°C° 0 mm 3 mps 605 mmHg 55%
    11:00 +18°C° 0.3 mm 3 mps 606 mmHg 53%
    12:00 +18°C° 0.3 mm 3 mps 606 mmHg 51%
    13:00 +19°C° 0.3 mm 2 mps 606 mmHg 50%
    14:00 +19°C° 0.7 mm 2 mps 605 mmHg 52%
    15:00 +19°C° 0.7 mm 2 mps 605 mmHg 53%
    16:00 +20°C° 0.7 mm 1 mps 605 mmHg 55%
    17:00 +18°C° 0.5 mm 1 mps 605 mmHg 61%
    18:00 +16°C° 0.5 mm 2 mps 604 mmHg 67%
    19:00 +15°C° 0.5 mm 2 mps 604 mmHg 73%
    20:00 +14°C° 0.1 mm 2 mps 604 mmHg 76%
    21:00 +13°C° 0.1 mm 2 mps 604 mmHg 79%
    22:00 +12°C° 0.1 mm 2 mps 604 mmHg 83%
    23:00 +12°C° 0 mm 1 mps 603 mmHg 82%

    3 June, Wednesday

    Time Temperature Precipitation Wind Pressure Humidity
    00:00 +11°C° 0 mm 1 mps 603 mmHg 81%
    01:00 +11°C° 0 mm 1 mps 603 mmHg 80%
    02:00 +10°C° 0 mm 1 mps 602 mmHg 81%
    03:00 +10°C° 0 mm 1 mps 602 mmHg 83%
    04:00 +9°C° 0 mm 1 mps 602 mmHg 84%
    05:00 +11°C° 0 mm 1 mps 603 mmHg 79%
    06:00 +13°C° 0 mm 1 mps 604 mmHg 73%
    07:00 +14°C° 0 mm 0 mps 605 mmHg 68%
    08:00 +16°C° 0.2 mm 1 mps 605 mmHg 62%
    09:00 +18°C° 0.2 mm 1 mps 606 mmHg 55%
    10:00 +20°C° 0.2 mm 1 mps 606 mmHg 49%
    11:00 +19°C° 0.6 mm 2 mps 606 mmHg 50%
    12:00 +19°C° 0.6 mm 2 mps 606 mmHg 51%
    13:00 +19°C° 0.6 mm 3 mps 605 mmHg 53%
    14:00 +19°C° 0.7 mm 3 mps 605 mmHg 53%
    15:00 +19°C° 0.7 mm 3 mps 605 mmHg 53%
    16:00 +19°C° 0.7 mm 3 mps 604 mmHg 52%
    17:00 +17°C° 0.2 mm 2 mps 604 mmHg 58%
    18:00 +16°C° 0.2 mm 2 mps 603 mmHg 63%
    19:00 +14°C° 0.2 mm 2 mps 603 mmHg 68%
    20:00 +13°C° 0 mm 2 mps 603 mmHg 69%
    21:00 +12°C° 0 mm 1 mps 603 mmHg 70%
    22:00 +11°C° 0 mm 1 mps 602 mmHg 70%
    23:00 +11°C° 0 mm 1 mps 602 mmHg 65%

    4 June, Thursday

    Time Temperature Precipitation Wind Pressure Humidity
    00:00 +10°C° 0 mm 1 mps 602 mmHg 60%
    01:00 +10°C° 0 mm 1 mps 601 mmHg 55%
    02:00 +10°C° 0 mm 1 mps 601 mmHg 53%
    03:00 +10°C° 0 mm 1 mps 601 mmHg 51%
    04:00 +10°C° 0 mm 1 mps 601 mmHg 49%
    05:00 +12°C° 0 mm 1 mps 602 mmHg 45%
    06:00 +14°C° 0 mm 1 mps 603 mmHg 42%
    07:00 +16°C° 0 mm 0 mps 604 mmHg 39%
    08:00 +19°C° 0 mm 1 mps 604 mmHg 35%
    09:00 +21°C° 0 mm 1 mps 605 mmHg 31%
    10:00 +23°C° 0 mm 1 mps 605 mmHg 28%
    11:00 +23°C° 0 mm 2 mps 605 mmHg 28%
    12:00 +22°C° 0 mm 3 mps 604 mmHg 28%
    13:00 +23°C° 0 mm 4 mps 604 mmHg 29%
    14:00 +22°C° 0 mm 5 mps 603 mmHg 32%
    15:00 +21°C° 0 mm 5 mps 603 mmHg 35%
    16:00 +20°C° 0 mm 5 mps 602 mmHg 38%
    17:00 +19°C° 0 mm 5 mps 601 mmHg 45%
    18:00 +17°C° 0 mm 4 mps 601 mmHg 53%
    19:00 +14°C° 0 mm 3 mps 600 mmHg 60%
    20:00 +13°C° 0 mm 3 mps 600 mmHg 67%
    21:00 +12°C° 0 mm 2 mps 599 mmHg 74%
    22:00 +10°C° 0 mm 2 mps 599 mmHg 81%
    23:00 +10°C° 0 mm 2 mps 599 mmHg 79%
    Show more